Weather History for Burlington, NC

Change the Weather History Date:

Tuesday, January 3, 2012

  Actual Average Record
Temperature  
Mean Temperature 27 °F -  
Max Temperature 33 °F 50 °F - (-1)
Min Temperature 21 °F 29 °F - (-1)
Degree Days  
Heating Degree Days 38    
Moisture  
Dew Point 6 °F    
Average Humidity 41    
Maximum Humidity 57    
Minimum Humidity 28    
Precipitation  
Precipitation 0.00 in - - ()
Sea Level Pressure  
Sea Level Pressure 30.18 in    
Wind  
Wind Speed 12 mph (WNW)    
Max Wind Speed 21 mph    
Max Gust Speed 31 mph    
Visibility 10 miles    
Events      
Averages and records for this station are not official NWS values.
T = Trace of Precipitation, MM = Missing Value Source: NWS Daily Summary

Daily Weather History Graph

Daily Weather History Graph

Search for Another Location

Airport:

Trip Planner

Search our weather history database for the weather conditions in past years. The results will help you decide how hot, cold, wet, or windy it might be!

Date:

Astronomy

Jan. 03, 2012 Rise Set
Actual Time 7:28 AM EST 5:15 PM EST
Civil Twilight 7:00 AM EST 5:44 PM EST
Nautical Twilight 6:28 AM EST 6:16 PM EST
Astronomical Twilight 5:57 AM EST 6:47 PM EST
Moon 12:59 PM EST (1/3) 2:21 AM EST (1/3)
Length of Visible Light 10h 43m
Length of Day
9h 46m
Waxing Gibbous, 72% of the Moon is Illuminated
Jan 3
Waxing Gibbous
Jan 9
Full
Jan 16
Last Quarter
Jan 23
New
Jan 30
First Quarter

Hourly Weather History & Observations

Time (EST) Temp. Windchill Dew Point Humidity Pressure Visibility Wind Dir Wind Speed Gust Speed Precip Events Conditions
12:54 AM 27.0 °F 16.1 °F 7.0 °F 43% 30.06 in 10.0 mi NW 12.7 mph - N/A   Clear
1:54 AM 26.1 °F 17.6 °F 7.0 °F 44% 30.06 in 10.0 mi WNW 8.1 mph - N/A   Clear
2:54 AM 25.0 °F 14.8 °F 7.0 °F 46% 30.07 in 10.0 mi WNW 10.4 mph - N/A   Clear
3:54 AM 24.1 °F 15.2 °F 7.0 °F 48% 30.08 in 10.0 mi West 8.1 mph - N/A   Clear
4:54 AM 24.1 °F 13.1 °F 7.0 °F 48% 30.09 in 10.0 mi WNW 11.5 mph - N/A   Clear
5:54 AM 23.0 °F 13.9 °F 8.1 °F 53% 30.12 in 10.0 mi WNW 8.1 mph - N/A   Clear
6:54 AM 24.1 °F 13.7 °F 8.1 °F 51% 30.14 in 10.0 mi West 10.4 mph - N/A   Clear
7:54 AM 25.0 °F 13.1 °F 8.1 °F 49% 30.15 in 10.0 mi WNW 13.8 mph - N/A   Clear
8:54 AM 28.0 °F 15.7 °F 7.0 °F 41% 30.18 in 10.0 mi WNW 17.3 mph 31.1 mph N/A   Clear
9:54 AM 30.0 °F 17.9 °F 9.0 °F 41% 30.20 in 10.0 mi West 18.4 mph 26.5 mph N/A   Mostly Cloudy
10:54 AM 30.0 °F 18.3 °F 3.9 °F 33% 30.19 in 10.0 mi WNW 17.3 mph 26.5 mph N/A   Partly Cloudy
11:54 AM 30.9 °F 18.7 °F 5.0 °F 33% 30.17 in 10.0 mi NW 19.6 mph 31.1 mph N/A   Clear
12:54 PM 33.1 °F 22.2 °F 5.0 °F 31% 30.15 in 10.0 mi WNW 17.3 mph 25.3 mph N/A   Clear
1:54 PM 33.1 °F 22.6 °F 3.9 °F 29% 30.13 in 10.0 mi West 16.1 mph 26.5 mph N/A   Clear
2:54 PM 33.1 °F 21.2 °F 3.0 °F 28% 30.14 in 10.0 mi WNW 20.7 mph 28.8 mph N/A   Clear
3:54 PM 32.0 °F 19.8 °F 1.9 °F 28% 30.17 in 10.0 mi WNW 20.7 mph 27.6 mph N/A   Clear
4:54 PM 30.0 °F 20.5 °F 3.9 °F 33% 30.20 in 10.0 mi WNW 11.5 mph 19.6 mph N/A   Clear
5:54 PM 28.0 °F 19.3 °F 3.0 °F 34% 30.24 in 10.0 mi WNW 9.2 mph 19.6 mph N/A   Clear
6:54 PM 27.0 °F 17.3 °F 3.9 °F 37% 30.27 in 10.0 mi West 10.4 mph 23.0 mph N/A   Clear
7:54 PM 26.1 °F 20.5 °F 3.9 °F 39% 30.30 in 10.0 mi WNW 4.6 mph - N/A   Clear
8:54 PM 26.1 °F 19.4 °F 5.0 °F 41% 30.31 in 10.0 mi WNW 5.8 mph 17.3 mph N/A   Partly Cloudy
9:54 PM 21.9 °F 15.7 °F 7.0 °F 53% 30.33 in 10.0 mi NW 4.6 mph - N/A   Clear
10:54 PM 23.0 °F 17.0 °F 7.0 °F 50% 30.33 in 10.0 mi NW 4.6 mph - N/A   Clear
11:54 PM 21.0 °F 13.4 °F 8.1 °F 57% 30.34 in 10.0 mi SSW 5.8 mph - N/A   Clear